Time,TemperatureF,DewpointF,PressureIn,WindDirection,WindDirectionDegrees,WindSpeedMPH,WindSpeedGustMPH,Humidity,HourlyPrecipIn,Conditions,Clouds,dailyrainin,SoftwareType,DateUTC
2013-03-11 00:03:00,-999.0,-99.9,30.13,SE,127,7.0,8.0,-999,-99.99,,,-99.99,,2013-03-11 04:03:00,
2013-03-11 00:12:00,-999.0,-99.9,30.13,ESE,121,5.0,7.0,-999,-99.99,,,-99.99,,2013-03-11 04:12:00,
2013-03-11 00:22:00,66.0,-99.9,30.13,North,-999,-999.0,-999.0,-999,-99.99,,,-99.99,,2013-03-11 04:22:00,
2013-03-11 00:33:00,66.0,-99.9,30.13,North,-999,-999.0,-999.0,-999,-99.99,,,-99.99,,2013-03-11 04:33:00,
2013-03-11 00:43:00,-999.0,-99.9,30.13,SE,127,7.0,10.0,-999,-99.99,,,-99.99,,2013-03-11 04:43:00,
2013-03-11 00:53:00,-999.0,-99.9,30.13,ESE,123,5.0,7.0,-999,-99.99,,,-99.99,,2013-03-11 04:53:00,
2013-03-11 01:04:00,65.0,-99.9,30.12,North,-999,-999.0,-999.0,-999,-99.99,,,-99.99,,2013-03-11 05:04:00,
2013-03-11 01:12:00,-999.0,-99.9,30.12,ESE,115,4.0,7.0,-999,-99.99,,,-99.99,,2013-03-11 05:12:00,
2013-03-11 01:22:00,-999.0,-99.9,30.12,ESE,119,5.0,7.0,-999,-99.99,,,-99.99,,2013-03-11 05:22:00,
2013-03-11 01:32:00,-999.0,-99.9,30.13,SE,124,6.0,8.0,-999,-99.99,,,-99.99,,2013-03-11 05:32:00,
2013-03-11 01:43:00,64.0,-99.9,30.13,North,-999,-999.0,-999.0,-999,-99.99,,,-99.99,,2013-03-11 05:43:00,
2013-03-11 01:52:00,64.0,-99.9,30.12,North,-999,-999.0,-999.0,-999,-99.99,,,-99.99,,2013-03-11 05:52:00,
2013-03-11 02:02:00,-999.0,-99.9,30.12,ESE,121,4.0,6.0,-999,-99.99,,,-99.99,,2013-03-11 06:02:00,
2013-03-11 02:12:00,-999.0,-99.9,30.12,SE,128,4.0,5.0,-999,-99.99,,,-99.99,,2013-03-11 06:12:00,
2013-03-11 02:22:00,-999.0,-99.9,30.12,ESE,116,3.0,5.0,-999,-99.99,,,-99.99,,2013-03-11 06:22:00,
2013-03-11 02:33:00,-999.0,-99.9,30.12,ESE,119,3.0,5.0,-999,-99.99,,,-99.99,,2013-03-11 06:33:00,
2013-03-11 02:42:00,63.0,-99.9,30.11,North,-999,-999.0,-999.0,-999,-99.99,,,-99.99,,2013-03-11 06:42:00,
2013-03-11 02:53:00,-999.0,-99.9,30.11,ESE,123,6.0,7.0,-999,-99.99,,,-99.99,,2013-03-11 06:53:00,
2013-03-11 03:03:00,-999.0,-99.9,30.10,SE,127,6.0,8.0,-999,-99.99,,,-99.99,,2013-03-11 07:03:00,
2013-03-11 03:12:00,-999.0,-99.9,30.10,SE,131,6.0,8.0,-999,-99.99,,,-99.99,,2013-03-11 07:12:00,
2013-03-11 03:22:00,-999.0,-99.9,30.10,SE,132,5.0,7.0,-999,-99.99,,,-99.99,,2013-03-11 07:22:00,
2013-03-11 03:42:00,-999.0,-99.9,30.09,SE,129,6.0,9.0,-999,-99.99,,,-99.99,,2013-03-11 07:42:00,
2013-03-11 03:52:00,62.0,-99.9,30.09,North,-999,-999.0,-999.0,-999,-99.99,,,-99.99,,2013-03-11 07:52:00,
2013-03-11 04:02:00,-999.0,-99.9,30.09,SE,134,5.0,8.0,-999,-99.99,,,-99.99,,2013-03-11 08:02:00,
2013-03-11 04:12:00,-999.0,-99.9,30.09,SE,134,5.0,8.0,-999,-99.99,,,-99.99,,2013-03-11 08:12:00,
2013-03-11 04:22:00,-999.0,-99.9,30.07,ESE,118,5.0,9.0,-999,-99.99,,,-99.99,,2013-03-11 08:22:00,
2013-03-11 04:33:00,62.0,-99.9,30.06,North,-999,-999.0,-999.0,-999,-99.99,,,-99.99,,2013-03-11 08:33:00,
2013-03-11 04:42:00,-999.0,-99.9,30.06,ESE,123,8.0,10.0,-999,-99.99,,,-99.99,,2013-03-11 08:42:00,
2013-03-11 04:52:00,-999.0,-99.9,30.06,ESE,122,9.0,13.0,-999,-99.99,,,-99.99,,2013-03-11 08:52:00,
2013-03-11 05:02:00,62.0,-99.9,30.05,North,-999,-999.0,-999.0,-999,-99.99,,,-99.99,,2013-03-11 09:02:00,
2013-03-11 05:23:00,62.0,-99.9,30.05,North,-999,-999.0,-999.0,-999,-99.99,,,-99.99,,2013-03-11 09:23:00,
2013-03-11 05:42:00,62.0,-99.9,30.04,North,-999,-999.0,-999.0,-999,-99.99,,,-99.99,,2013-03-11 09:42:00,
2013-03-11 05:53:00,62.0,-99.9,30.04,North,-999,-999.0,-999.0,-999,-99.99,,,-99.99,,2013-03-11 09:53:00,
2013-03-11 06:02:00,-999.0,-99.9,30.03,SE,125,13.0,16.0,-999,-99.99,,,-99.99,,2013-03-11 10:02:00,
2013-03-11 06:12:00,-999.0,-99.9,30.03,SE,128,12.0,16.0,-999,-99.99,,,-99.99,,2013-03-11 10:12:00,
2013-03-11 06:22:00,62.0,-99.9,30.04,North,-999,-999.0,-999.0,-999,-99.99,,,-99.99,,2013-03-11 10:22:00,
2013-03-11 06:33:00,-999.0,-99.9,30.04,SE,134,11.0,17.0,-999,-99.99,,,-99.99,,2013-03-11 10:33:00,
2013-03-11 06:53:00,-999.0,-99.9,30.04,SE,139,11.0,15.0,-999,-99.99,,,-99.99,,2013-03-11 10:53:00,
2013-03-11 07:03:00,-999.0,-99.9,30.04,SE,136,10.0,14.0,-999,-99.99,,,-99.99,,2013-03-11 11:03:00,
2013-03-11 07:23:00,62.0,-99.9,30.04,North,-999,-999.0,-999.0,-999,-99.99,,,-99.99,,2013-03-11 11:23:00,
2013-03-11 07:33:00,-999.0,-99.9,30.04,SE,128,11.0,15.0,-999,-99.99,,,-99.99,,2013-03-11 11:33:00,
2013-03-11 07:43:00,-999.0,-99.9,30.04,SE,128,11.0,13.0,-999,-99.99,,,-99.99,,2013-03-11 11:43:00,
2013-03-11 07:53:00,62.0,-99.9,30.04,North,-999,-999.0,-999.0,-999,-99.99,,,-99.99,,2013-03-11 11:53:00,
2013-03-11 08:02:00,62.0,-99.9,30.05,North,-999,-999.0,-999.0,-999,-99.99,,,-99.99,,2013-03-11 12:02:00,
2013-03-11 08:12:00,-999.0,-99.9,30.05,SE,125,10.0,16.0,-999,-99.99,,,-99.99,,2013-03-11 12:12:00,
2013-03-11 08:23:00,-999.0,-99.9,30.05,SE,127,10.0,14.0,-999,-99.99,,,-99.99,,2013-03-11 12:23:00,
2013-03-11 08:43:00,62.0,-99.9,30.05,North,-999,-999.0,-999.0,-999,-99.99,,,-99.99,,2013-03-11 12:43:00,
2013-03-11 08:53:00,62.0,-99.9,30.05,North,-999,-999.0,-999.0,-999,-99.99,,,-99.99,,2013-03-11 12:53:00,
2013-03-11 09:23:00,62.0,-99.9,30.05,North,-999,-999.0,-999.0,-999,-99.99,,,-99.99,,2013-03-11 13:23:00,
2013-03-11 09:33:00,63.0,-99.9,30.06,North,-999,-999.0,-999.0,-999,-99.99,,,-99.99,,2013-03-11 13:33:00,
2013-03-11 09:43:00,63.0,-99.9,30.06,North,-999,-999.0,-999.0,-999,-99.99,,,-99.99,,2013-03-11 13:43:00,
2013-03-11 09:53:00,-999.0,-99.9,30.06,SE,127,10.0,13.0,-999,-99.99,,,-99.99,,2013-03-11 13:53:00,
2013-03-11 10:02:00,64.0,-99.9,30.06,North,-999,-999.0,-999.0,-999,-99.99,,,-99.99,,2013-03-11 14:02:00,
2013-03-11 10:13:00,-999.0,-99.9,30.06,SE,127,10.0,13.0,-999,-99.99,,,-99.99,,2013-03-11 14:13:00,
2013-03-11 10:22:00,64.0,-99.9,30.05,North,-999,-999.0,-999.0,-999,-99.99,,,-99.99,,2013-03-11 14:22:00,
2013-03-11 10:43:00,-999.0,-99.9,30.05,SE,125,9.0,11.0,-999,-99.99,,,-99.99,,2013-03-11 14:43:00,
2013-03-11 10:53:00,67.0,-99.9,30.05,North,-999,-999.0,-999.0,-999,-99.99,,,-99.99,,2013-03-11 14:53:00,
2013-03-11 11:03:00,67.0,-99.9,30.05,North,-999,-999.0,-999.0,-999,-99.99,,,-99.99,,2013-03-11 15:03:00,
2013-03-11 11:23:00,67.0,-99.9,30.05,North,-999,-999.0,-999.0,-999,-99.99,,,-99.99,,2013-03-11 15:23:00,
2013-03-11 11:33:00,67.0,-99.9,30.05,North,-999,-999.0,-999.0,-999,-99.99,,,-99.99,,2013-03-11 15:33:00,
2013-03-11 11:43:00,68.0,-99.9,30.05,North,-999,-999.0,-999.0,-999,-99.99,,,-99.99,,2013-03-11 15:43:00,
2013-03-11 11:54:00,-999.0,-99.9,30.05,SSE,159,15.0,17.0,-999,-99.99,,,-99.99,,2013-03-11 15:54:00,
2013-03-11 12:03:00,-999.0,-99.9,30.05,SSE,159,12.0,16.0,-999,-99.99,,,-99.99,,2013-03-11 16:03:00,
2013-03-11 12:23:00,-999.0,-99.9,30.07,South,172,12.0,14.0,-999,-99.99,,,-99.99,,2013-03-11 16:23:00,
2013-03-11 12:32:00,-999.0,-99.9,30.08,South,180,12.0,15.0,-999,-99.99,,,-99.99,,2013-03-11 16:32:00,
2013-03-11 12:43:00,71.0,-99.9,30.08,North,-999,-999.0,-999.0,-999,-99.99,,,-99.99,,2013-03-11 16:43:00,
2013-03-11 12:53:00,-999.0,-99.9,30.08,South,179,12.0,14.0,-999,-99.99,,,-99.99,,2013-03-11 16:53:00,
2013-03-11 13:03:00,-999.0,-99.9,30.08,South,175,9.0,13.0,-999,-99.99,,,-99.99,,2013-03-11 17:03:00,
2013-03-11 13:17:00,-999.0,-99.9,30.08,South,172,9.0,14.0,-999,-99.99,,,-99.99,,2013-03-11 17:17:00,
2013-03-11 13:29:00,72.0,-99.9,30.08,North,-999,-999.0,-999.0,-999,-99.99,,,-99.99,,2013-03-11 17:29:00,
2013-03-11 13:42:00,71.0,-99.9,30.07,North,-999,-999.0,-999.0,-999,-99.99,,,-99.99,,2013-03-11 17:42:00,
2013-03-11 13:53:00,-999.0,-99.9,30.07,SSW,210,12.0,15.0,-999,-99.99,,,-99.99,,2013-03-11 17:53:00,
2013-03-11 14:23:00,-999.0,-99.9,30.05,SSW,207,14.0,18.0,-999,-99.99,,,-99.99,,2013-03-11 18:23:00,
2013-03-11 14:33:00,72.0,-99.9,30.05,North,-999,-999.0,-999.0,-999,-99.99,,,-99.99,,2013-03-11 18:33:00,
2013-03-11 14:43:00,-999.0,-99.9,30.04,SSW,198,16.0,22.0,-999,-99.99,,,-99.99,,2013-03-11 18:43:00,
2013-03-11 14:53:00,-999.0,-99.9,30.03,SSW,199,19.0,23.0,-999,-99.99,,,-99.99,,2013-03-11 18:53:00,
2013-03-11 15:23:00,-999.0,-99.9,30.02,SSW,199,17.0,22.0,-999,-99.99,,,-99.99,,2013-03-11 19:23:00,
2013-03-11 15:43:00,-999.0,-99.9,30.01,SSW,204,16.0,20.0,-999,-99.99,,,-99.99,,2013-03-11 19:43:00,
2013-03-11 15:53:00,72.0,-99.9,30.00,North,-999,-999.0,-999.0,-999,-99.99,,,-99.99,,2013-03-11 19:53:00,
2013-03-11 16:03:00,-999.0,-99.9,29.99,SSW,192,14.0,18.0,-999,-99.99,,,-99.99,,2013-03-11 20:03:00,
2013-03-11 16:23:00,-999.0,-99.9,29.98,SSW,201,15.0,19.0,-999,-99.99,,,-99.99,,2013-03-11 20:23:00,
2013-03-11 16:33:00,73.0,-99.9,29.98,North,-999,-999.0,-999.0,-999,-99.99,,,-99.99,,2013-03-11 20:33:00,
2013-03-11 16:44:00,-999.0,-99.9,29.98,SSW,198,15.0,19.0,-999,-99.99,,,-99.99,,2013-03-11 20:44:00,
2013-03-11 16:53:00,-999.0,-99.9,29.98,SSW,192,16.0,21.0,-999,-99.99,,,-99.99,,2013-03-11 20:53:00,
2013-03-11 17:03:00,-999.0,-99.9,29.99,SSW,196,16.0,22.0,-999,-99.99,,,-99.99,,2013-03-11 21:03:00,
2013-03-11 17:23:00,-999.0,-99.9,29.98,SW,219,16.0,22.0,-999,-99.99,,,-99.99,,2013-03-11 21:23:00,
2013-03-11 17:33:00,-999.0,-99.9,29.98,SSW,207,16.0,21.0,-999,-99.99,,,-99.99,,2013-03-11 21:33:00,
2013-03-11 17:44:00,73.0,-99.9,29.98,North,-999,-999.0,-999.0,-999,-99.99,,,-99.99,,2013-03-11 21:44:00,
2013-03-11 17:54:00,73.0,-99.9,29.98,North,-999,-999.0,-999.0,-999,-99.99,,,-99.99,,2013-03-11 21:54:00,
2013-03-11 18:03:00,-999.0,-99.9,29.98,SSW,202,17.0,21.0,-999,-99.99,,,-99.99,,2013-03-11 22:03:00,
2013-03-11 18:23:00,72.0,-99.9,29.98,North,-999,-999.0,-999.0,-999,-99.99,,,-99.99,,2013-03-11 22:23:00,
2013-03-11 18:33:00,-999.0,-99.9,29.98,SSW,211,14.0,18.0,-999,-99.99,,,-99.99,,2013-03-11 22:33:00,
2013-03-11 18:43:00,72.0,-99.9,29.98,North,-999,-999.0,-999.0,-999,-99.99,,,-99.99,,2013-03-11 22:43:00,
2013-03-11 18:53:00,71.0,-99.9,29.98,North,-999,-999.0,-999.0,-999,-99.99,,,-99.99,,2013-03-11 22:53:00,
2013-03-11 19:03:00,-999.0,-99.9,29.98,SSW,203,11.0,17.0,-999,-99.99,,,-99.99,,2013-03-11 23:03:00,
2013-03-11 19:22:00,70.0,-99.9,29.96,North,-999,-999.0,-999.0,-999,-99.99,,,-99.99,,2013-03-11 23:22:00,
2013-03-11 19:43:00,-999.0,-99.9,29.95,South,181,14.0,18.0,-999,-99.99,,,-99.99,,2013-03-11 23:43:00,
2013-03-11 19:54:00,-999.0,-99.9,29.94,South,175,12.0,16.0,-999,-99.99,,,-99.99,,2013-03-11 23:54:00,
2013-03-11 20:02:00,-999.0,-99.9,29.94,South,175,12.0,16.0,-999,-99.99,,,-99.99,,2013-03-12 00:02:00,
2013-03-11 20:23:00,69.0,-99.9,29.93,North,-999,-999.0,-999.0,-999,-99.99,,,-99.99,,2013-03-12 00:23:00,
2013-03-11 20:33:00,69.0,-99.9,29.93,North,-999,-999.0,-999.0,-999,-99.99,,,-99.99,,2013-03-12 00:33:00,
2013-03-11 20:43:00,-999.0,-99.9,29.94,South,183,16.0,18.0,-999,-99.99,,,-99.99,,2013-03-12 00:43:00,
2013-03-11 20:54:00,-999.0,-99.9,29.94,South,186,15.0,18.0,-999,-99.99,,,-99.99,,2013-03-12 00:54:00,
2013-03-11 21:22:00,69.0,-99.9,29.94,North,-999,-999.0,-999.0,-999,-99.99,,,-99.99,,2013-03-12 01:22:00,
2013-03-11 21:33:00,-999.0,-99.9,29.95,South,182,14.0,17.0,-999,-99.99,,,-99.99,,2013-03-12 01:33:00,
2013-03-11 21:42:00,-999.0,-99.9,29.94,South,183,13.0,16.0,-999,-99.99,,,-99.99,,2013-03-12 01:42:00,
2013-03-11 21:53:00,-999.0,-99.9,29.95,South,179,12.0,16.0,-999,-99.99,,,-99.99,,2013-03-12 01:53:00,
2013-03-11 22:02:00,-999.0,-99.9,29.95,South,176,13.0,15.0,-999,-99.99,,,-99.99,,2013-03-12 02:02:00,
2013-03-11 22:22:00,-999.0,-99.9,29.95,South,176,12.0,15.0,-999,-99.99,,,-99.99,,2013-03-12 02:22:00,
2013-03-11 22:32:00,-999.0,-99.9,29.95,South,173,11.0,15.0,-999,-99.99,,,-99.99,,2013-03-12 02:32:00,
2013-03-11 22:43:00,68.0,-99.9,29.96,North,-999,-999.0,-999.0,-999,-99.99,,,-99.99,,2013-03-12 02:43:00,
2013-03-11 22:52:00,-999.0,-99.9,29.95,South,177,11.0,14.0,-999,-99.99,,,-99.99,,2013-03-12 02:52:00,
2013-03-11 23:22:00,-999.0,-99.9,29.95,South,177,13.0,16.0,-999,-99.99,,,-99.99,,2013-03-12 03:22:00,
2013-03-11 23:32:00,69.0,-99.9,29.95,North,-999,-999.0,-999.0,-999,-99.99,,,-99.99,,2013-03-12 03:32:00,
2013-03-11 23:43:00,-999.0,-99.9,29.95,South,180,12.0,14.0,-999,-99.99,,,-99.99,,2013-03-12 03:43:00,
2013-03-11 23:53:00,-999.0,-99.9,29.94,South,179,15.0,17.0,-999,-99.99,,,-99.99,,2013-03-12 03:53:00,